User: anonymous   Login
Location: Keewatin
(47.4004°N, 93.0827°W)
Time: 13:26:50
(UTC+00:00)
Language:

KKS-1 - Orbit

View from above orbital plane
View from above orbital plane
View from above satellite
View from above satellite

Ground track
Ground track

The orbit data is extracted from the following two-line orbital elements,

1 33499U 09002H   20048.81083086 +.00000076 +00000-0 +19228-4 0  9996
2 33499 098.3304 260.0654 0009813 143.1324 217.0560 14.75504314594798
Epoch (UTC): 17 February 2020 19:27:35
Eccentricity: 0.0009813
inclination: 98.3304°
perigee height: 636 km
apogee height: 650 km
right ascension of ascending node: 260.0654°
argument of perigee: 143.1324°
revolutions per day: 14.75504314
mean anomaly at epoch: 217.0560°
orbit number at epoch: 59479

The dashed part of the orbit path shows where the satellite is in the earth's shadow,  

DLR